User: anonymous   Login
Location: Albany
(35.0000°S, 118.0000°E)
Time: 07:02:57
(UTC-04:00)
Language:

Centaur D-1AR AC-48 - Orbit

View from above orbital plane
View from above orbital plane
View from above satellite
View from above satellite

Ground track
Ground track

The orbit data is extracted from the following two-line orbital elements,

1 10779U 78035B   16180.70755602  .00000010  00000-0 -36102-3 0  9992
2 10779  21.2861 191.7064 7161281 155.7290 257.3443  2.22652274310801
Epoch (UTC): 28 June 2016 16:58:52
Eccentricity: 0.7161281
inclination: 21.2861°
perigee height: 654 km
apogee height: 36135 km
right ascension of ascending node: 191.7064°
argument of perigee: 155.7290°
revolutions per day: 2.22652274
mean anomaly at epoch: 257.3443°
orbit number at epoch: 31080

The dashed part of the orbit path shows where the satellite is in the earth's shadow,  

DLR